Location: Newark
(47.5833°N, 8.1500°E)
Time: 13:22:10
(UTC+00:00)

Tiros 1 - Pass Details

Date: 27 October 2020
Orbit: 630 x 664 km, 48.4° (Epoch: 29 November)

Event Time Altitude Azimuth Distance (km) Brightness Sun altitude
Exits shadow 05:24:23 - 263° (W) 2,194 9.3 -7.3°
Reaches altitude 10° 05:24:52 10° 263° (W) 2,007 9.1 -7.3°
Maximum altitude 05:29:29 85° 350° (N) 638 7.1 -6.5°
Drops below altitude 10° 05:34:08 10° 81° (E) 2,012 11.0 -5.7°
Sets 05:36:27 0° 82° (E) 2,923 12.1 -5.4°
